Wind_Speed
5 5 8 8 2 3 5 8 3 4 4 22 9 8 14 27 6 5 5 8 9 14 21 29 32 31 32 34 36 37 39 39 40 39 35 32 29 27 27 26 23 21 21 21 20 18 18 16 15
4 5 9 4 4 2 10 7 10 22 20 7 15 15 5 8 29 27 28 26 16 10 16 29 30 33 33 36 38 39 40 40 40 39 36 33 31 29 28 26 25 24 23 22 20 20 19 17 17
4 9 5 4 5 12 16 11 18 22 19 15 6 7 9 6 23 26 29 23 24 15 14 20 25 29 34 37 39 40 40 40 39 38 37 35 32 31 29 27 26 25 24 23 22 20 20 19 18
4 5 1 3 16 23 25 8 5 3 20 21 18 10 19 32 22 17 21 24 24 19 17 19 20 26 31 36 39 40 40 39 39 39 38 35 33 32 31 28 27 27 26 25 21 21 21 22 21
8 3 3 5 24 22 15 21 18 7 4 5 10 10 15 29 22 30 26 27 27 25 24 22 24 21 29 34 39 41 41 40 39 39 39 37 35 33 31 30 29 28 26 24 23 22 22 22 22
3 2 3 15 24 28 20 30 8 11 17 25 11 15 30 35 29 27 27 27 30 27 27 26 27 25 26 34 39 42 42 41 40 39 40 39 38 35 33 32 31 29 28 27 24 23 24 25 25
3 3 14 12 24 24 32 9 16 12 19 28 18 10 25 25 25 28 28 26 31 28 24 26 29 28 27 32 39 43 44 43 42 41 40 40 39 38 36 35 33 31 30 27 24 25 25 26 25
3 2 6 14 24 30 21 21 18 15 14 23 29 10 20 23 24 28 28 26 34 32 31 28 27 27 27 31 38 42 44 44 44 42 41 41 40 38 37 36 34 32 32 27 26 27 27 27 26
7 5 13 28 18 21 29 20 29 29 33 27 31 33 28 30 30 25 24 23 33 34 34 34 30 28 29 31 38 42 44 44 44 43 42 42 41 39 38 38 35 33 33 29 28 29 30 28 26
3 6 20 13 14 17 27 25 21 19 27 36 29 46 42 32 29 30 27 23 33 38 37 36 34 32 32 34 38 42 43 44 44 44 43 42 42 42 41 39 36 36 35 30 30 31 30 27 26
4 10 11 21 26 27 28 34 24 20 24 28 22 33 29 30 39 40 41 31 23 35 36 36 37 34 32 37 39 44 45 45 45 46 46 46 45 44 43 41 40 37 33 33 34 33 30 28 26
5 10 15 22 27 28 22 34 29 28 41 32 36 43 51 35 37 35 42 42 30 23 34 32 35 37 35 35 40 44 48 48 47 48 48 49 49 49 48 45 41 36 34 35 34 33 30 28 25
14 10 20 25 28 30 32 26 32 38 43 38 40 42 43 48 41 40 37 43 40 33 26 33 36 37 40 36 38 45 47 49 49 50 50 51 50 51 48 46 41 40 36 34 33 31 29 27 25
10 14 21 24 29 28 24 26 32 43 46 40 35 42 47 47 44 45 40 37 41 42 32 29 37 39 39 40 38 46 48 49 52 51 52 50 48 54 50 45 37 39 33 32 31 31 28 26 24
19 9 19 25 23 20 31 21 27 41 41 36 33 36 38 39 39 38 43 40 40 44 39 29 35 40 39 41 42 43 48 53 53 52 51 50 44 41 41 32 34 33 34 30 30 29 28 26 25
4 4 5 17 3 13 7 20 25 42 41 34 33 32 37 38 39 41 40 40 34 35 36 34 27 42 43 44 45 47 45 51 51 50 49 51 49 48 39 36 43 40 41 41 38 32 28 28 26
3 7 16 19 16 11 8 20 25 38 37 33 31 30 31 33 36 41 48 42 39 30 32 34 32 36 43 44 44 45 45 47 50 50 47 45 39 42 39 49 49 45 43 40 37 36 35 31 27
12 15 18 21 28 22 22 24 31 38 35 35 38 35 36 37 40 38 36 45 44 39 28 28 33 31 40 42 42 41 43 44 46 49 44 45 41 34 36 33 42 45 42 40 38 35 32 29 29
14 15 21 30 26 19 22 24 30 26 26 25 34 34 35 38 38 40 39 37 48 41 37 30 32 24 37 40 41 38 41 42 45 46 43 45 46 40 38 39 43 45 41 40 38 36 33 31 29
17 17 26 27 17 10 26 32 28 28 26 27 30 31 32 34 38 32 36 38 38 44 43 35 30 36 33 40 40 40 39 41 43 44 43 40 43 46 48 44 40 40 41 41 40 39 37 34 32
21 12 19 20 29 19 17 21 16 18 14 20 25 30 31 31 32 39 42 40 38 36 44 39 32 29 32 37 40 41 40 41 39 45 45 43 43 45 43 41 43 47 43 43 42 40 39 39 36
17 6 13 21 15 13 8 15 18 10 9 15 14 22 23 30 36 40 40 40 40 35 36 37 36 28 31 34 37 40 40 40 40 42 43 46 47 45 41 39 36 37 42 43 42 40 39 38 37
12 12 15 20 18 14 5 7 5 9 9 17 17 24 30 28 28 36 39 39 39 35 33 31 33 33 26 32 38 36 38 36 31 31 34 39 42 44 46 44 40 37 39 43 42 40 39 38 37
14 9 16 2 2 1 7 5 1 4 10 14 16 24 28 29 27 19 25 34 34 35 29 27 25 25 28 30 37 37 35 34 30 29 31 36 39 39 43 45 45 41 39 38 40 40 39 38 37
8 6 4 5 4 6 9 11 4 8 11 12 17 23 27 29 24 20 15 17 24 24 28 25 25 28 24 30 36 40 38 36 34 32 33 34 38 39 42 44 43 43 40 37 34 38 40 40 39
2 5 3 7 5 17 12 4 4 8 7 15 18 22 25 28 31 17 15 10 7 13 17 23 24 23 24 31 35 39 39 35 35 33 34 33 37 36 40 43 46 44 41 40 38 37 35 37 38
6 0 4 5 1 3 4 3 4 15 17 15 15 22 24 27 31 24 13 10 4 6 10 15 18 19 25 31 33 38 37 35 33 28 28 23 26 29 27 33 36 44 49 42 41 40 38 36 34
6 2 3 2 5 6 5 4 4 16 18 18 17 16 24 27 30 28 15 8 6 8 10 11 13 17 24 30 32 35 33 28 24 25 28 28 29 31 33 38 31 33 38 51 44 42 40 38 36
4 2 4 3 2 3 5 5 3 8 13 15 15 22 24 25 28 25 18 13 9 12 13 16 15 16 18 24 28 31 29 28 28 25 27 28 29 30 29 27 28 32 43 52 36 45 43 42 39
5 3 2 3 5 4 3 6 1 6 10 12 14 21 23 24 26 22 20 18 18 16 17 16 14 11 13 14 19 21 22 22 20 22 23 22 24 25 29 22 24 26 28 37 33 50 47 44 41
Wind_Direction
281 225 183 161 72 54 247 237 213 216 230 226 180 177 201 217 188 208 319 356 298 254 232 222 207 208 201 199 197 194 191 189 189 191 190 189 189 189 188 187 188 188 187 184 181 176 171 168 164
286 198 171 151 129 208 251 205 216 224 212 33 222 229 252 245 234 252 276 283 286 241 240 214 208 208 203 202 200 196 193 191 190 191 192 192 191 192 191 192 189 190 187 186 183 176 171 170 168
260 185 171 150 190 227 247 206 227 238 247 257 291 249 257 238 262 259 264 273 257 240 212 216 217 215 208 206 202 199 195 193 193 192 191 190 190 190 191 193 189 189 185 184 177 177 172 172 173
217 189 246 180 230 241 236 226 222 283 261 243 245 275 252 257 255 274 290 255 239 232 206 210 215 218 214 211 205 202 199 196 195 194 192 191 190 191 192 191 192 189 188 188 185 182 177 176 176
197 170 216 238 245 254 240 253 253 244 252 200 187 250 255 256 256 285 300 250 240 230 230 225 211 215 216 212 207 205 202 200 198 197 195 194 192 194 193 192 194 191 192 189 184 182 179 180 179
212 169 195 233 242 245 255 247 262 246 268 273 276 290 273 277 286 292 290 258 243 230 226 221 214 213 216 215 210 207 205 204 202 199 199 197 195 194 195 196 194 194 194 188 186 183 181 180 178
168 133 235 251 250 261 252 265 242 264 265 260 265 280 278 275 288 288 297 273 237 223 221 219 217 215 216 217 212 208 207 206 205 202 201 201 199 196 196 198 196 196 191 188 188 183 181 179 179
209 183 259 245 247 255 277 279 283 301 278 287 260 251 257 270 282 292 286 270 242 229 220 215 216 219 221 217 214 210 209 208 206 205 203 202 203 200 196 201 198 197 193 190 187 184 180 181 183
251 242 250 246 252 270 299 304 296 296 284 289 271 271 283 290 297 297 290 274 242 237 230 216 218 222 222 220 213 211 210 209 209 207 206 205 202 201 200 200 201 198 195 191 188 185 183 183 184
208 228 246 283 292 294 306 306 321 312 304 282 283 278 285 290 282 293 292 293 241 238 235 223 220 223 217 216 212 209 210 210 210 209 207 207 203 201 201 202 203 199 197 187 187 186 184 186 189
256 248 303 296 304 304 300 296 307 301 280 280 317 308 302 304 287 282 284 282 282 243 243 234 226 226 221 214 213 209 210 210 210 210 209 207 205 201 201 201 200 201 198 185 185 186 185 190 191
295 277 275 278 286 288 283 293 286 279 274 292 291 293 296 296 289 293 281 281 275 259 250 247 242 230 222 215 218 211 211 210 210 211 211 210 206 201 200 198 200 201 199 190 186 185 185 189 193
244 254 256 270 277 279 286 279 279 276 283 284 281 282 278 284 288 281 284 281 278 271 257 246 242 237 227 219 220 214 216 215 211 212 212 213 210 206 201 196 201 201 191 188 187 190 190 194 197
251 267 275 274 270 274 271 272 280 285 288 282 276 273 272 275 279 280 276 276 273 269 264 256 244 239 234 228 222 218 219 218 216 213 214 213 213 206 203 201 205 189 187 188 194 194 195 196 197
256 280 290 274 266 259 269 280 271 276 279 278 275 270 269 266 267 269 272 274 272 270 264 274 243 240 235 232 230 225 228 222 222 218 215 213 209 211 208 193 189 187 187 189 196 197 196 195 194
256 262 276 285 172 264 219 268 266 266 267 266 268 268 273 270 258 259 268 267 268 267 267 263 258 237 234 231 232 234 230 233 227 222 219 210 210 210 198 195 198 196 191 192 194 195 198 195 197
236 275 286 296 288 269 256 276 272 271 267 271 265 257 263 273 272 255 255 263 266 264 258 264 268 236 234 235 233 232 233 233 233 226 219 215 205 209 211 202 199 191 190 191 194 194 197 192 195
291 294 290 281 289 301 280 277 270 271 268 268 269 264 264 260 264 263 254 252 262 260 261 255 259 241 233 231 230 232 232 231 232 230 220 204 195 193 204 212 195 191 191 192 194 195 193 195 195
266 274 276 281 288 285 285 283 275 276 270 264 262 259 255 253 260 261 255 249 251 257 256 250 247 245 231 228 225 218 222 223 229 232 224 208 199 195 198 208 197 194 196 197 195 195 197 191 195
271 275 280 287 284 299 298 284 284 282 273 266 263 260 253 254 255 255 258 259 248 250 255 254 252 245 242 230 224 217 217 224 227 233 222 215 208 200 200 203 199 203 198 199 199 199 193 198 197
283 267 278 276 305 301 285 282 281 289 276 270 270 271 263 252 255 260 261 258 255 245 250 254 247 244 241 231 227 221 223 223 214 217 220 211 218 217 205 207 208 204 204 203 203 203 204 200 198
283 232 280 295 303 296 0 290 309 301 25 13 349 341 320 317 269 254 253 255 258 252 240 249 248 245 234 229 223 223 220 212 210 215 227 215 212 215 207 206 210 207 205 206 206 206 208 211 206
264 295 281 280 275 285 281 236 291 28 355 345 333 328 327 319 316 255 251 257 254 250 247 242 243 244 236 224 223 226 225 221 218 223 231 231 226 217 209 207 208 212 211 209 208 208 211 213 215
287 314 306 7 101 7 255 209 282 14 334 325 326 327 329 333 324 302 262 258 256 246 248 247 236 233 235 225 222 225 225 227 224 230 234 238 234 231 218 212 210 212 211 213 213 213 213 217 222
40 22 326 340 351 239 308 301 299 1 348 330 327 326 331 337 334 331 314 252 238 235 235 239 229 229 232 224 221 225 223 222 226 230 234 233 227 225 237 219 220 214 213 215 218 219 219 220 221
289 153 270 305 312 300 312 244 170 43 3 342 332 329 333 339 339 335 334 329 230 205 212 226 226 224 231 225 217 215 223 225 227 226 224 231 245 238 236 237 219 219 218 217 218 220 225 225 227
280 224 227 267 294 355 275 273 182 351 354 350 341 338 338 339 340 345 343 345 349 159 175 198 208 215 219 215 213 215 218 221 225 229 226 230 221 233 241 232 240 230 222 221 220 221 222 228 233
173 324 285 357 311 301 286 287 281 333 339 341 342 342 339 341 349 358 3 13 43 93 119 155 163 177 199 205 209 208 209 216 228 237 235 232 234 238 236 230 234 230 244 235 219 226 222 224 229
340 271 239 252 229 281 306 281 264 324 334 334 338 342 340 344 355 2 9 44 63 84 98 117 139 140 154 174 187 196 204 213 223 235 240 241 243 250 243 240 239 242 237 237 241 230 227 230 227
173 242 261 248 292 238 269 280 344 347 340 341 339 344 347 356 7 12 16 38 70 74 81 95 102 136 136 143 173 189 199 210 212 222 234 240 241 245 247 241 241 241 244 244 236 235 234 228 229
Height
1491 1491 1495 1495 1505 1508 1500 1484 1474 1470 1470 1456 1457 1457 1456 1456 1458 1468 1448 1448 1448 1447 1449 1452 1454 1458 1461 1464 1469 1471 1472 1474 1476 1481 1486 1488 1493 1496 1500 1502 1505 1509 1512 1514 1515 1518 1520 1523 1524
1490 1492 1493 1494 1507 1509 1475 1475 1470 1455 1449 1454 1457 1455 1455 1451 1451 1449 1447 1449 1449 1448 1447 1449 1452 1455 1458 1461 1465 1469 1472 1473 1475 1478 1483 1488 1490 1495 1498 1502 1503 1507 1510 1513 1515 1518 1520 1523 1524
1488 1491 1493 1496 1505 1489 1462 1459 1453 1450 1456 1457 1459 1456 1452 1446 1447 1446 1447 1447 1448 1447 1446 1447 1451 1452 1454 1458 1462 1466 1470 1472 1474 1477 1480 1484 1489 1493 1496 1501 1502 1505 1508 1512 1515 1517 1519 1522 1524
1489 1491 1492 1496 1483 1459 1448 1446 1451 1451 1452 1452 1454 1457 1448 1444 1444 1445 1445 1442 1444 1445 1444 1445 1447 1449 1452 1455 1459 1463 1467 1470 1472 1475 1478 1482 1487 1491 1494 1498 1502 1504 1507 1510 1514 1516 1519 1521 1524
1488 1488 1492 1492 1467 1450 1447 1446 1451 1449 1450 1448 1450 1444 1441 1439 1441 1440 1442 1440 1439 1440 1442 1442 1444 1445 1448 1451 1455 1460 1463 1467 1469 1473 1476 1479 1483 1489 1493 1495 1500 1502 1505 1508 1511 1515 1517 1520 1523
1485 1485 1493 1477 1461 1446 1443 1444 1451 1447 1448 1447 1450 1447 1440 1437 1440 1440 1438 1439 1436 1436 1437 1437 1440 1441 1444 1447 1451 1455 1460 1464 1466 1469 1474 1477 1479 1483 1490 1494 1496 1500 1503 1507 1509 1513 1516 1518 1520
1483 1486 1472 1469 1454 1445 1427 1447 1445 1450 1448 1438 1450 1445 1435 1432 1438 1436 1437 1438 1435 1432 1433 1433 1436 1438 1440 1443 1447 1450 1454 1459 1462 1465 1469 1474 1477 1480 1485 1490 1493 1497 1500 1504 1508 1511 1514 1517 1519
1483 1483 1474 1463 1452 1440 1441 1446 1445 1450 1440 1440 1443 1434 1430 1431 1432 1432 1432 1431 1433 1431 1429 1429 1431 1433 1436 1439 1443 1447 1451 1455 1458 1462 1465 1469 1475 1479 1480 1488 1491 1495 1498 1502 1505 1509 1512 1516 1518
1479 1479 1468 1450 1456 1452 1448 1445 1447 1447 1439 1440 1437 1429 1430 1429 1427 1429 1426 1426 1429 1426 1427 1425 1426 1428 1430 1434 1438 1443 1447 1451 1454 1457 1462 1466 1471 1476 1479 1482 1488 1491 1496 1499 1503 1506 1510 1514 1517
1477 1476 1459 1460 1457 1455 1447 1447 1451 1448 1438 1427 1437 1426 1427 1427 1425 1423 1423 1423 1423 1422 1422 1422 1422 1424 1425 1429 1433 1437 1443 1446 1451 1453 1457 1462 1466 1470 1474 1479 1484 1487 1491 1497 1501 1504 1508 1512 1516
1474 1470 1467 1459 1458 1459 1455 1444 1453 1447 1431 1432 1435 1425 1423 1422 1419 1421 1418 1418 1420 1421 1419 1418 1418 1420 1421 1423 1427 1430 1435 1440 1444 1447 1452 1457 1460 1464 1468 1474 1478 1485 1489 1493 1497 1502 1504 1510 1513
1477 1471 1468 1461 1459 1455 1452 1446 1439 1443 1419 1434 1431 1426 1419 1420 1417 1415 1412 1411 1414 1413 1415 1417 1419 1416 1416 1418 1421 1423 1427 1432 1437 1441 1445 1450 1453 1456 1460 1466 1471 1478 1485 1489 1495 1500 1501 1508 1511
1470 1464 1461 1457 1453 1448 1446 1442 1433 1422 1423 1427 1425 1420 1416 1411 1411 1408 1409 1406 1406 1407 1408 1410 1414 1413 1413 1414 1415 1417 1421 1425 1428 1433 1438 1442 1447 1451 1455 1460 1466 1474 1476 1487 1492 1497 1500 1505 1509
1460 1459 1453 1448 1441 1443 1441 1434 1432 1418 1421 1417 1417 1411 1407 1405 1405 1404 1403 1400 1399 1400 1400 1403 1406 1408 1410 1412 1410 1412 1415 1418 1421 1425 1430 1436 1440 1444 1450 1456 1461 1468 1476 1485 1491 1495 1499 1503 1507
1456 1454 1444 1431 1433 1434 1431 1433 1423 1413 1407 1403 1404 1402 1395 1393 1395 1395 1393 1394 1393 1391 1392 1394 1397 1400 1403 1407 1408 1409 1408 1410 1413 1419 1423 1429 1435 1440 1444 1453 1453 1466 1473 1482 1490 1494 1498 1501 1504
1452 1450 1446 1422 1426 1424 1429 1422 1408 1400 1395 1392 1391 1391 1388 1383 1382 1386 1385 1386 1386 1385 1385 1387 1388 1392 1395 1398 1401 1404 1403 1407 1407 1412 1418 1422 1429 1437 1443 1448 1457 1462 1467 1478 1484 1489 1496 1498 1503
1450 1446 1436 1426 1409 1419 1420 1411 1394 1388 1386 1382 1381 1380 1378 1375 1373 1373 1375 1376 1378 1378 1378 1379 1381 1383 1386 1389 1393 1396 1398 1401 1402 1405 1411 1417 1425 1430 1438 1445 1451 1458 1466 1472 1481 1485 1492 1493 1500
1442 1440 1432 1426 1400 1411 1408 1400 1383 1378 1379 1372 1370 1370 1368 1365 1362 1363 1364 1367 1368 1370 1370 1372 1374 1377 1379 1383 1388 1390 1393 1395 1396 1398 1405 1412 1420 1428 1438 1444 1448 1455 1461 1469 1476 1482 1488 1492 1496
1442 1438 1431 1407 1403 1410 1399 1386 1367 1367 1369 1361 1356 1356 1355 1353 1350 1353 1355 1356 1357 1361 1362 1364 1367 1370 1372 1376 1380 1382 1385 1390 1392 1395 1400 1409 1416 1423 1432 1442 1447 1450 1457 1465 1471 1477 1483 1488 1491
1433 1433 1419 1401 1397 1401 1389 1372 1361 1356 1354 1348 1346 1345 1345 1343 1344 1342 1344 1346 1347 1351 1353 1356 1359 1363 1366 1370 1374 1376 1381 1385 1389 1392 1396 1403 1409 1417 1425 1434 1440 1448 1453 1460 1465 1471 1476 1483 1487
1422 1425 1415 1412 1388 1391 1385 1366 1354 1342 1342 1339 1340 1341 1339 1337 1335 1335 1335 1336 1338 1340 1344 1349 1352 1355 1360 1364 1368 1373 1376 1381 1385 1387 1393 1397 1404 1409 1417 1427 1433 1439 1448 1453 1458 1465 1471 1476 1482
1423 1412 1409 1405 1408 1394 1386 1374 1343 1341 1346 1347 1345 1341 1339 1333 1328 1325 1325 1326 1328 1332 1336 1340 1345 1349 1354 1358 1361 1365 1369 1373 1378 1384 1390 1393 1398 1404 1411 1419 1425 1432 1440 1446 1453 1459 1466 1473 1476
1417 1409 1408 1400 1399 1398 1380 1382 1353 1351 1354 1353 1348 1344 1337 1329 1321 1317 1317 1317 1319 1324 1326 1331 1336 1342 1346 1351 1355 1359 1364 1369 1376 1382 1387 1391 1395 1402 1408 1415 1421 1427 1433 1440 1447 1453 1460 1467 1472
1412 1411 1402 1407 1414 1425 1376 1372 1355 1363 1363 1357 1350 1344 1336 1327 1319 1312 1311 1311 1313 1315 1318 1323 1328 1334 1339 1344 1349 1354 1359 1366 1371 1378 1383 1388 1394 1400 1405 1410 1415 1422 1428 1434 1442 1449 1455 1460 1467
1422 1435 1435 1434 1438 1402 1360 1364 1359 1366 1363 1359 1351 1344 1336 1328 1320 1313 1307 1305 1306 1307 1311 1315 1320 1326 1331 1335 1342 1349 1355 1361 1367 1372 1378 1384 1390 1394 1402 1401 1410 1417 1424 1430 1436 1443 1449 1453 1459
1425 1428 1413 1408 1403 1377 1360 1372 1357 1363 1362 1360 1354 1345 1337 1328 1322 1315 1310 1305 1302 1301 1304 1308 1313 1318 1325 1330 1335 1342 1350 1356 1361 1366 1372 1380 1386 1392 1397 1399 1404 1412 1419 1425 1431 1437 1443 1448 1454
1423 1424 1407 1398 1430 1417 1383 1356 1357 1356 1357 1356 1351 1345 1337 1329 1322 1315 1310 1306 1302 1299 1300 1303 1307 1312 1319 1325 1332 1339 1345 1350 1357 1361 1368 1375 1381 1387 1393 1397 1402 1406 1411 1420 1425 1431 1437 1442 1448
1412 1405 1404 1421 1415 1417 1386 1371 1373 1365 1361 1357 1351 1345 1338 1331 1323 1316 1312 1308 1304 1300 1299 1302 1306 1309 1314 1320 1327 1335 1342 1348 1354 1359 1365 1372 1377 1383 1390 1394 1397 1401 1408 1413 1418 1425 1431 1436 1441
1414 1411 1401 1399 1399 1395 1393 1384 1379 1372 1367 1361 1355 1349 1342 1334 1326 1319 1315 1311 1306 1302 1302 1301 1306 1309 1313 1318 1325 1331 1338 1344 1350 1356 1363 1368 1373 1377 1384 1389 1392 1397 1400 1406 1410 1418 1424 1428 1434
1406 1400 1398 1400 1403 1392 1387 1378 1376 1372 1369 1364 1359 1352 1344 1337 1330 1324 1317 1312 1306 1304 1304 1300 1304 1309 1312 1317 1321 1328 1335 1342 1347 1354 1360 1364 1370 1374 1378 1385 1390 1393 1397 1402 1406 1407 1416 1419 1425